Terminal Aerodrome Forecast
Issued by NWS Huntsville, AL

Home | Current Version | Previous Version | Text Only | Print | Product List | Glossary On
Versions: 1 2 3 4 5 6 7 8 9 10 11 12 13 14 15 16 17 18 19 20 21 22 23 24 25 26 27 28 29 30 31 32 33 34 35 36 37
000
FTUS44 KHUN 301428 AAA
TAFHSV
TAF AMD
KHSV 301428Z 3014/3112 12005KT P6SM -RA SCT025 BKN080
      TEMPO 3017/3019 4SM -RA BR BKN035
     FM310000 08004KT P6SM SCT010 OVC100
     FM310700 VRB03KT 4SM BR SCT009 BKN030=

USA.gov is the U.S. government's official web portal to all federal, state and local government web resources and services.